Location: Marlborough
(51.4223°N, 1.7415°W)
Time: 13:28:16
(UTC+01:00)

Envisat - Visible Passes

Search period start: 23 May 2024 00:00
Search period end: 02 June 2024 00:00
Orbit: 762 x 764 km, 98.3° (Epoch: 22 May)

Date Brightness Start Highest point End Pass type
(mag) Time Alt. Az. Time Alt. Az. Time Alt. Az.
23 May 3.8 04:12:39 10° NNE 04:17:38 52° E 04:22:34 10° S visible
24 May 4.9 03:35:44 10° NE 03:40:00 26° E 03:44:15 10° SSE visible
25 May 5.5 02:59:44 10° NE 03:02:10 13° E 03:04:35 10° ESE visible
26 May 4.2 03:59:39 10° NNE 04:04:28 41° E 04:09:15 10° SSE visible
27 May 5.2 03:22:56 10° NE 03:26:45 21° E 03:30:34 10° SE visible
28 May 5.8 02:48:23 10° ENE 02:48:50 10° E 02:49:18 10° E visible
29 May 4.6 03:46:42 10° NNE 03:51:16 32° E 03:55:48 10° SSE visible
30 May 5.4 03:10:16 10° NE 03:13:29 17° E 03:16:41 10° SE visible
31 May 3.8 04:10:43 10° NNE 04:15:41 51° E 04:20:37 10° S visible
01 Jun 4.9 03:33:48 10° NE 03:38:03 26° E 03:42:15 10° SSE visible
